www.pogodaiklimat.ru

Погода и климат >> Архив погоды >> Беларусь >> Кличев


ПОГОДА в Кличеве

  • Прогноз погоды в Кличеве
  • Монитор погоды в Кличеве

АРХИВ ПОГОДЫ в Кличеве

Время (UTC), дата Ветер
(напр.,м/с)
 
Видим.   Явления Облачность Т
(С)
Тd
(С)
f
(%)
Тe
(С)
Тes
(С)
Комфортность P
(гПа)
Po
(гПа)
Тmin
(С)
Tmax
(С)
R
(мм)
R24
(мм)
S
(см)
21 10.02 ЮВ 2 10 км ясно -1.9 -3.6 88 -6 -6 1010.5 991.0
00 11.02 ЮВ 2 4000 м дымка ясно -2.0 -3.4 90 -6 -6 1009.3 989.8
03 11.02 ЮВ 5 10 км ясно -1.7 -3.3 89 -8 -8 1007.1 987.7
06 11.02 ЮВ 4
{10}
10 км 9/0
[Ac und]
-0.8 -2.7 87 -6 -6 1005.9 986.6 -2.2 12
09 11.02 ЮВ 5
{11}
10 км 9/0
[Ac und]
-0.1 -2.8 82 -6 -6 1005.3 986.0
12 11.02 Ю 5
{11}
4000 м слаб. ливневой снег 10/10 400 м
[Cb cap]
-0.9 -1.9 93 -7 -7 1004.6 985.3
15 11.02 Ю 4
{10}
4000 м слаб. ливневой снег 10/10 400 м
[Cb cap]
-0.6 -1.0 97 -6 -6 1004.6 985.3
18 11.02 Ю 4 4000 м слаб. снег 10/10 400 м
[Frnb]
+0.4 +0.1 98 -5 -5 1004.9 985.7 +0.4 4
21 11.02 Ю 4 4000 м слаб. снег 10/10 400 м
[Frnb]
+0.6 +0.5 99 -5 -5 1004.5 985.3
00 12.02 Ю 3 4000 м дымка {снег} 10/10 400 м
[Frnb]
+0.5 +0.4 99 -4 -4 1004.3 985.1
03 12.02 ЮЗ 2 4000 м дымка 10/10 400 м
[Frnb]
+0.8 +0.3 96 -3 -3 1004.2 985.0
06 12.02 ЮЗ 3 4000 м дымка 9/9 900 м
[Sc]
+1.2 +1.1 99 -4 -4 1005.4 986.2 +0.4 0.6 16
09 12.02 ЮЗ 3 4000 м дымка 9/9 900 м
[Sc]
+1.8 +1.3 96 -3 -2 1007.2 988.0
12 12.02 З 3 10 км 9/9 900 м
[Sc]
+2.5 -0.6 80 -2 -1 1008.2 989.1
15 12.02 З 3 10 км 9/9 900 м
[Sc]
+1.3 -1.6 81 -3 -3 1010.1 990.8
18 12.02 З 4 10 км 9/9 900 м
[Sc]
+0.9 -1.7 83 -4 -4 1011.9 992.6 +3.0
21 12.02 СЗ 9-12
{12}
10 км 9/9 900 м
[Sc]
+0.4 -2.3 82 -7 -7 1013.5 994.1
00 13.02 СЗ 8-12
{15}
10 км 9/9 900 м
[Sc]
-1.9 -5.9 74 -10 -10 1015.6 996.0
03 13.02 СЗ 9-13
{14}
10 км 9/9 900 м
[Sc]
-1.0 -7.0 64 -9 -9 1016.3 996.8
06 13.02 З 5
{14}
10 км 9/9 800 м
[Sc]
-1.7 -5.4 76 -8 -8 1017.7 998.1 -2.6 14
09 13.02 З 7-10
{10}
10 км 8/8 840 м
[Sc]
-0.9 -5.7 70 -8 -8 1018.5 998.9
12 13.02 З 3
{10}
10 км 9/9 840 м
[Sc]
-0.1 -5.3 68 -4 -4 1017.6 998.1
15 13.02 ЮЗ 3 10 км 9/9 800 м
[Sc]
-0.6 -3.5 81 -5 -5 1016.6 997.1
18 13.02 Ю 2 10 км {ливн. осадки} 9/9 700 м
[Cb calv]
-0.8 -2.2 90 -5 -5 1016.4 996.9 +0.8 0.2
21 13.02 Ю 1 4000 м дымка 9/9 800 м
[Sc]
-0.7 -1.7 93 -3 -3 1017.4 997.9
00 14.02 штиль 0 4000 м дымка 9/9 800 м
[Sc]
-0.6 -1.6 93 -2 -2 1019.3 999.7
03 14.02 штиль 0 4000 м дымка 9/9 800 м
[Sc]
-0.8 -1.4 96 -2 -2 1021.5 1001.9
06 14.02 З 1 4000 м дымка {туман} 9/9 800 м
[Sc]
-0.6 -1.2 96 -3 -3 1023.7 1004.0 -0.9 14
09 14.02 СЗ 4 4000 м дымка 9/9 900 м
[Sc]
+0.8 +0.1 95 -5 -4 1025.5 1005.9
12 14.02 З 3 10 км 9/9 900 м
[Sc]
+1.4 -0.8 85 -3 -3 1026.4 1006.8
15 14.02 З 3 10 км 9/9 900 м
[Sc]
+1.3 -0.2 90 -3 -3 1027.3 1007.7
18 14.02 З 2 4000 м дымка 9/9 900 м
[Sc]
+1.3 -0.2 90 -2 -2 1028.7 1009.1 +1.6
21 14.02 ЮЗ 1 10 км 9/9 800 м
[Sc]
+1.2 -0.6 88 -1 -1 1029.2 1009.6
00 15.02 ЮЗ 2 10 км 9/9 800 м
[Sc]
+1.0 -0.6 89 -3 -3 1028.6 1009.0
03 15.02 З 2 4000 м дымка 9/9 900 м
[Sc]
0.0 -0.7 95 -4 -4 1028.3 1008.6
06 15.02 ЮЗ 3
{10}
4000 м дымка 9/9 800 м
[Sc]
-0.8 -1.2 97 -6 -6 1027.8 1008.1 -1.4 11
09 15.02 З 4 4000 м дымка 10/10 400 м
[Frnb]
+1.3 +0.9 97 -4 -4 1027.0 1007.4
12 15.02 З 2 4000 м слаб. морось 10/10 300 м
[St]
+2.1 +1.5 96 -1 -1 1025.6 1006.1
15 15.02 З 4 4000 м дымка 10/10 400 м
[Frnb]
+1.7 +1.3 97 -4 -4 1025.7 1006.2
18 15.02 З 4 4000 м дымка 10/10 400 м
[Frnb]
+1.4 +1.1 98 -4 -4 1025.5 1006.0 +2.4 0.0
21 15.02 З 4 4000 м дымка 10/10 400 м
[Frnb]
+1.1 +0.8 98 -4 -4 1025.3 1005.7
00 16.02 З 4 4000 м дымка 10/10 400 м
[Frnb]
+1.2 +0.9 98 -4 -4 1024.4 1004.9
03 16.02 З 4 4000 м дымка 10/10 400 м
[Frnb]
+1.1 +0.8 98 -4 -4 1023.8 1004.3
06 16.02 З 3 4000 м дымка 10/10 300 м
[St]
+1.1 +1.0 99 -4 -4 1023.7 1004.2 +1.0 11
09 16.02 З 4 4000 м дымка 10/10 400 м
[Frnb]
+1.6 +0.8 94 -4 -4 1023.6 1004.1
12 16.02 З 3 10 км 4/4 600 м
[Sc]
+3.2 +2.0 92 -1 0 1022.9 1003.5
15 16.02 ЮЗ 2 10 км ясно +2.5 +0.6 87 -1 -1 1022.0 1002.6
18 16.02 ЮЗ 3 10 км 6/6 900 м
[Sc]
+1.1 -0.3 90 -3 -3 1021.3 1001.8 +3.9
21 16.02 ЮЗ 3 4000 м дымка 4/4 600 м
[Sc]
+0.3 -0.3 96 -5 -5 1019.5 1000.0
00 17.02 ЮЗ 3 4000 м дымка ясно -1.8 -2.2 97 -7 -7 1017.6 998.0
03 17.02 ЮЗ 4 4000 м дымка ясно -0.4 -1.4 93 -6 -6 1014.6 995.1
06 17.02 З 4 10 км 8/0
[Cs]
+0.7 -1.1 88 -5 -4 1013.7 994.3 -1.9 11
09 17.02 З 6
{10}
10 км 9/9 800 м
[Sc]
+2.3 +0.5 88 -4 -4 1014.5 995.2
12 17.02 З 7 10 км 3/3 600 м
[Sc]
+3.4 +1.0 84 -3 -2 1014.7 995.5
15 17.02 З 7-11
{11}
10 км 8/0
[Cs]
+2.9 -0.2 80 -3 -3 1015.5 996.3
18 17.02 З 5
{11}
10 км ясно +1.1 -0.8 87 -5 -5 1017.5 998.1 +3.9

 

Местоположение метеостанции Кличев (Могилевская область, Беларусь): широта 53.50 долгота 29.32 высота над уровнем моря 155 м.

В архиве по умолчанию представлена погода в Кличеве за последнюю неделю. Архивные данные за месяц целиком и за предыдущие месяцы, начиная с января 2011 года, Вы можете получить, выбрав интересующий диапазон дат из раскрывающегося списка и нажав кнопку "Ввод!".


*Определитесь, кто Вы:
робот инопланетянин человек

Внимание! Время в таблицах - всемирное. Для получения местного времени необходимо прибавить поправку, которая равна 3 ч.

Смотрите также архив погоды в соседних городах и на ближайших метеорологических станциях:

Погода в Бобруйске (Могилевская область, Беларусь) (35 км)
Погода в Березино (Минская область, Беларусь) (43 км)
Погода в Могилеве (Могилевская область, Беларусь) (72 км)
Погода в Марьиной Горке (Минская область, Беларусь) (79 км)
Погода в Могилев городе (Могилевская область, Беларусь) (80 км)
Погода в Жлобине (Гомельская область, Беларусь) (82 км)
Погода в Борисове (Минская область, Беларусь) (101 км)
Погода в Октябре (Гомельская область, Беларусь) (101 км)
Погода в Славгороде (Могилевская область, Беларусь) (111 км)
Погода в Минске (город Минск, Беларусь) (118 км)

Пояснения к столбцам:

Ветер - указаны скорость ветра в м/с - средняя за 10 мин, порывы в срок и между сроками (в фигурных скобках) и направление, откуда дует ветер: С - северный, СВ - северо-восточный, В - восточный, ЮВ - юго-восточный, Ю - южный, ЮЗ - юго-западный, З - западный, СЗ - северо-западный.
Видимость - горизонтальная дальность видимости в метрах или километрах. При видимости от 1 до 10 км при отсутствии осадков обычно наблюдается дымка, при ухудшении видимости до 1 км и менее - туман. В сухую погоду видимость может ухудшаться дымом, пылью или мглою.
Явления - указаны атмосферные явления, наблюдавшиеся в срок или в последний час перед сроком; фигурными скобками обозначены явления, наблюдавшиеся между сроками (за 1-3 часа до срока); квадратными скобками обозначены град или гололедные отложения с указанием их диаметра в мм.
Облачность - указаны через наклонную черту общая и нижняя облачность в баллах и высота нижней границы облаков в метрах; квадратными скобками обозначены формы облаков: Ci - перистые, Cs - перисто-слоистые, Cc - перисто-кучевые, Ac - высококучевые, As - высокослоистые, Sc - слоисто-кучевые, Ns - слоисто-дождевые, Cu - кучевые, Cb - кучево-дождевые. Подробнее классификацию облаков см. в Атласе облаков (PDF).
T - Температура воздуха - температура, измеренная на высоте 2 м над землей.
Td - Температура точки росы - температура, при понижении до которой содержащийся в воздухе водяной пар достигнет насыщения.
f - Относительная влажность воздуха - влажноcть воздуха, измеренная на высоте 2 м над землей.
Te - Эффективная температура - температура, которую ощущает одетый по сезону человек в тени. Характеристика душности погоды. При расчете учитывается влияние влажности воздуха и скорости ветра на теплоощущения человека.
Tes - Эффективная температура на солнце - температура, которую ощущает человек, с поправкой на солнечный нагрев. Характеристика знойности погоды. Зависит от высоты солнца над горизонтом, облачности и скорости ветра. Ночью, в пасмурную погоду, а также при ветре 12 м/с и более поправка равна нулю.
P - Атмосферное давление - приведенное к уровню моря атмосферное давление.
Po - Атмосферное давление - измеренное на уровне метеостанции атмосферное давление.
Tmin - Минимальная температура - минимум температуры воздуха на высоте 2 м над землей.
Tmax - Максимальная температура - максимум температуры воздуха на высоте 2 м над землей.
R - Количество осадков - Количество выпавших осадков за период времени, мм. При наведении курсора мыши на число - период времени, за который выпало указанное количество осадков.
R24 - Количество осадков - Количество выпавших осадков за 24 часа, мм.
S - Снежный покров - Высота снежного покрова, см. При наведении курсора мыши на число - состояние снежного покрова и степень покрытия местности в баллах.